ELECTRON R/B

基本信息
目录编号:
65303
目录名称:
ELECTRON R/B
国际标识:
2025-185G
轨道中心:
EARTH
物体状态:
已陨落(2025-09-04)
发射日期:
2025-08-23 UTC
国别:
美国 (US)
轨道信息
数据来源: 国际轨道数据
星历时间: 2025-09-04T16:22:54+0800
半长轴: 6558.942km
偏心率: 0.0074416
轨道倾角: 97.941°
近地点辐角: 201.836°
升交点赤经: 331.823°
平近点角: 157.976°
近地点: 131.997km
远地点: 229.617km
周期: 88.107分钟
每日圈数: 16.343767
详细信息
发射场:
RLLC
轨道高度:
LEO
数据来源:
AOE Integration Group
参考系:
TEME
时间系统:
UTC
历元类型:
SGP4
2D轨道图
3D轨道图
轨道高度分析图
轨道倾角分析图
轨道综合分析图
查看轨道综合分析图